[[{"header":{"parameterUnit":"m.s-1","parameterCategory":1,"la1":30.2991,"la2":30.254,"lo1":-89.0895,"lo2":-89.0444,"dy":0.0017,"dx":0.0017,"nx":28,"ny":28,"refTime":"2025-04-01T21:00:00:Z","depth":0,"parameterNumber":2,"parameterNumberName":"U-component_of_WINDS"},"data":[0,0,0,0,0,0,0,0,0,0,0,0,0,0,0,0,0,0,0,0,0,0,0,0,0,0,0,0,0,0,0,0,0,0,0,0,0,0,0,0,0,0,0,0,0,0,0,0,0,0,0,0,0,0,0,0,0,0,-4.7374,-4.7375,0,-4.752,-4.7522,-4.7524,-4.7553,-4.7552,-4.7551,-4.755,-4.7699,-4.7704,-4.7709,0,0,0,0,0,0,0,0,0,0,0,0,0,-4.7118,-4.7123,-4.7373,-4.7375,-4.7377,-4.752,-4.7522,-4.7524,-4.7553,-4.7552,-4.7551,-4.7549,-4.7697,-4.7703,-4.7709,0,0,0,0,0,0,0,0,0,0,0,0,0,-4.7243,-4.7124,-4.7373,-4.7409,-4.7414,-4.752,-4.7522,-4.7525,-4.7554,-4.7552,-4.755,-4.7549,-4.7695,-4.7703,-4.771,-4.779,0,0,-4.7733,-4.7737,0,0,0,0,0,0,0,0,-4.7236,-4.7253,-4.7402,-4.7407,-4.7412,-4.7517,-4.7487,-4.7614,-4.7554,-4.75,-4.755,-4.7548,-4.764,-4.7652,-4.7683,-4.7797,-4.7804,-4.7734,-4.7738,-4.7742,-4.7744,0,0,0,0,0,0,0,-4.7228,-4.7247,-4.7431,-4.7404,-4.741,-4.7418,-4.7434,-4.7511,-4.7578,-4.7505,-4.7507,-4.7524,-4.7642,-4.7676,-4.7687,-4.7806,-4.7734,-4.774,-4.7745,-4.7748,-4.7994,-4.7996,0,0,0,0,0,0,-4.7213,-4.7239,-4.7427,-4.7436,-4.7318,-4.7424,-4.7441,-4.7485,-4.7577,-4.7589,-4.7526,-4.7525,-4.7664,-4.7678,-4.7692,-4.7791,-4.7742,-4.7749,-4.7753,-4.7992,-4.7994,-4.7996,0,0,0,0,0,0,-4.7207,-4.7229,-4.7421,-4.7338,-4.7363,-4.743,-4.7478,-4.7489,-4.7522,-4.7593,-4.7605,-4.7548,-4.7663,-4.7681,-4.7766,-4.7797,-4.7752,-4.7759,-4.7989,-4.7993,-4.7995,-4.799,0,0,0,0,0,0,-4.72,-4.7227,-4.7258,-4.7339,-4.7368,-4.7492,-4.748,-4.7493,-4.7535,-4.7536,-4.7616,-4.7628,-4.7663,-4.7754,-4.7773,-4.7806,-4.7765,-4.7987,-4.7991,-4.7994,-4.7988,-4.7993,-4.7997,0,0,0,0,0,-4.719,-4.7251,-4.7259,-4.7282,-4.7408,-4.7494,-4.751,-4.7549,-4.7537,-4.7569,-4.7615,-4.7625,-4.7791,-4.7763,-4.7784,-4.782,-4.7985,-4.799,-4.7994,-4.7986,-4.7992,-4.7997,0,0,0,0,0,0,-4.7171,-4.7262,-4.7272,-4.7361,-4.7419,-4.7499,-4.7539,-4.7554,-4.7617,-4.7615,-4.7661,-4.7679,-4.7761,-4.78,-4.7766,-4.7903,-4.7887,-4.7896,-4.7874,-4.788,-4.7884,-4.7872,-4.7771,0,0,0,0,0,-4.7177,-4.724,-4.7316,-4.7386,-4.7415,-4.7472,-4.7511,-4.7537,-4.7599,-4.7624,-4.7676,-4.7736,-4.7801,-4.7843,-4.7908,-4.7995,-4.8012,-4.803,-4.8035,-4.8038,-4.8044,-4.8093,-4.8101,-4.8011,-4.8011,-4.8011,0,0,-4.719,-4.7247,-4.7284,-4.7384,-4.7432,-4.7495,-4.7493,-4.756,-4.7607,-4.7634,-4.7716,-4.7757,-4.7827,-4.7913,-4.7953,-4.7947,-4.8074,-4.8044,-4.8046,-4.8051,-4.8098,-4.8107,-4.8114,-4.8014,-4.8014,-4.8013,0,0,-4.7245,-4.7296,-4.7359,-4.7408,-4.7482,-4.752,-4.7535,-4.7613,-4.7641,-4.7725,-4.7746,-4.7803,-4.7915,-4.7964,-4.8004,-4.8079,-4.8091,-4.8099,-4.8121,-4.8168,-4.8175,-4.8182,-4.8207,-4.8216,-4.8106,-4.8106,-4.8106,0,-4.7251,-4.7348,-4.739,-4.7456,-4.7499,-4.7528,-4.7592,-4.7638,-4.7729,-4.7757,-4.775,-4.7892,-4.7941,-4.8038,-4.8057,-4.8089,-4.8107,-4.8089,-4.8171,-4.8178,-4.8184,-4.8209,-4.8219,-4.8106,-4.8106,-4.8106,-4.8106,0,-4.7351,-4.7418,-4.7461,-4.7548,-4.7596,-4.7661,-4.7713,-4.7757,-4.7779,-4.7818,-4.7903,-4.7963,-4.804,-4.8066,-4.8088,-4.8167,-4.816,-4.8162,-4.8147,-4.8192,-4.8216,-4.8226,-4.8107,-4.8107,-4.8107,-4.8107,0,0,-4.7396,-4.7507,-4.7521,-4.7561,-4.7645,-4.7697,-4.7764,-4.784,-4.7876,-4.7939,-4.7995,-4.809,-4.8092,-4.8137,-4.8165,-4.8206,-4.826,-4.8202,-4.8204,-4.8209,-4.835,-4.8346,-4.8357,-4.827,-4.8272,-4.8274,-4.8343,0,-4.746,-4.7579,-4.762,-4.7719,-4.778,-4.7809,-4.7867,-4.7925,-4.7964,-4.8022,-4.8065,-4.813,-4.8129,-4.8156,-4.8198,-4.8244,-4.8289,-4.8241,-4.8322,-4.8324,-4.83,-4.837,-4.8366,-4.8429,-4.8353,-4.8355,-4.8356,0,-4.7549,-4.7613,-4.7718,-4.7794,-4.7822,-4.7873,-4.7946,-4.8001,-4.8068,-4.8093,-4.8144,-4.8169,-4.824,-4.8223,-4.8321,-4.8287,-4.8323,-4.8351,-4.8355,-4.8362,-4.8341,-4.8376,-4.845,-4.8458,-4.8371,-4.837,-4.8369,0,-4.7569,-4.7681,-4.7758,-4.7792,-4.7883,-4.7919,-4.7958,-4.8024,-4.8066,-4.813,-4.8159,-4.823,-4.8268,-4.8323,-4.8367,-4.8351,-4.8461,-4.8448,-4.8483,-4.8481,-4.8502,-4.85,-4.858,-4.8529,-4.8529,-4.8529,-4.8529,0,-4.7634,-4.7696,-4.7768,-4.7815,-4.7886,-4.7933,-4.8002,-4.8044,-4.8102,-4.8157,-4.8188,-4.8239,-4.8295,-4.8355,-4.839,-4.8465,-4.8483,-4.8504,-4.8512,-4.85,-4.8497,-4.8522,-4.8518,-4.8532,-4.8531,-4.8531,-4.853,0,-4.7666,-4.7717,-4.7803,-4.7883,-4.7905,-4.7953,-4.8022,-4.8069,-4.811,-4.818,-4.8199,-4.8263,-4.8334,-4.8384,-4.8476,-4.8499,-4.858,-4.8589,-4.8557,-4.856,-4.8592,-4.8587,-4.8689,-4.8704,-4.8645,-4.8646,-4.8646,0,-4.7703,-4.7752,-4.7838,-4.7877,-4.7917,-4.7981,-4.8025,-4.8074,-4.8118,-4.8199,-4.8236,-4.8309,-4.837,-4.8483,-4.8537,-4.8607,-4.8617,-4.8648,-4.8627,-4.8613,-4.8615,-4.861,-4.8615,-4.865,-4.865,-4.865,-4.8651,0,-4.7763,-4.7786,-4.7848,-4.792,-4.7972,-4.803,-4.8089,-4.812,-4.8179,-4.8228,-4.8301,-4.8349,-4.8443,-4.8515,-4.8591,-4.8632,-4.8651,-4.8657,-4.8669,-4.8655,-4.8634,-4.8644,-4.8563,-4.8654,-4.8654,-4.8653,-4.8653,-4.8653,-4.7798,-4.7842,-4.791,-4.7978,-4.8028,-4.8082,-4.813,-4.8177,-4.8239,-4.8319,-4.8345,-4.842,-4.8487,-4.8591,-4.8633,-4.8693,-4.8691,-4.8708,-4.8712,-4.8715,-4.8713,-4.8627,-4.8707,-4.8707,-4.8707,-4.8707,-4.8707,0,-4.7858,-4.7903,-4.7965,-4.8047,-4.8101,-4.8116,-4.8182,-4.8226,-4.8292,-4.8352,-4.8412,-4.8496,-4.8567,-4.8627,-4.87,-4.8737,-4.8747,-4.8754,-4.8751,-4.876,-4.8712,-4.8694,-4.8744,-4.8744,-4.8744,-4.8744,-4.8744,-4.8744,-4.7895,-4.797,-4.8001,-4.8102,-4.8147,-4.8221,-4.8258,-4.8308,-4.8357,-4.8449,-4.8508,-4.8547,-4.8608,-4.8686,-4.8751,-4.8767,-4.8792,-4.8796,-4.8814,-4.8768,-4.8763,-4.8759,-4.8742,-4.8802,-4.8802,-4.8857,-4.8857,-4.8858]},{"header":{"parameterUnit":"m.s-1","parameterCategory":1,"la1":30.2991,"la2":30.254,"lo1":-89.0895,"lo2":-89.0444,"dy":0.0017,"dx":0.0017,"nx":28,"ny":28,"refTime":"2025-04-01T21:00:00:Z","depth":0,"parameterNumber":3,"parameterNumberName":"V-component_of_WINDS"},"data":[0,0,0,0,0,0,0,0,0,0,0,0,0,0,0,0,0,0,0,0,0,0,0,0,0,0,0,0,0,0,0,0,0,0,0,0,0,0,0,0,0,0,0,0,0,0,0,0,0,0,0,0,0,0,0,0,0,0,4.7689,4.769,0,4.7779,4.778,4.7781,4.7793,4.7792,4.7791,4.779,4.7881,4.7884,4.7888,0,0,0,0,0,0,0,0,0,0,0,0,0,4.7526,4.7529,4.7689,4.769,4.7691,4.7779,4.778,4.7782,4.7793,4.7792,4.7791,4.779,4.788,4.7884,4.7888,0,0,0,0,0,0,0,0,0,0,0,0,0,4.7605,4.753,4.7689,4.7707,4.771,4.7779,4.7781,4.7782,4.7793,4.7792,4.7791,4.7789,4.7879,4.7884,4.7888,4.7944,0,0,4.7903,4.7905,0,0,0,0,0,0,0,0,4.76,4.7611,4.7704,4.7706,4.7709,4.7774,4.7757,4.7836,4.7794,4.7762,4.779,4.7789,4.7846,4.7854,4.7874,4.7949,4.7953,4.7904,4.7907,4.7909,4.791,0,0,0,0,0,0,0,4.7595,4.7607,4.7725,4.7705,4.7708,4.7712,4.7721,4.7772,4.781,4.7764,4.7765,4.7776,4.7848,4.7869,4.7876,4.7954,4.7904,4.7908,4.7911,4.7913,4.8083,4.8084,0,0,0,0,0,0,4.7586,4.7602,4.7722,4.7727,4.7651,4.7716,4.7726,4.7754,4.781,4.7817,4.7777,4.7776,4.7861,4.787,4.7879,4.7951,4.7909,4.7913,4.7916,4.8081,4.8083,4.8085,0,0,0,0,0,0,4.7583,4.7597,4.7718,4.7665,4.7681,4.772,4.7751,4.7757,4.7778,4.7819,4.7826,4.7792,4.7861,4.7872,4.7929,4.7954,4.7915,4.792,4.8079,4.8082,4.8084,4.8092,0,0,0,0,0,0,4.7578,4.7595,4.7617,4.7666,4.7684,4.7766,4.7752,4.7759,4.7786,4.7786,4.7835,4.7842,4.786,4.7922,4.7934,4.796,4.7924,4.8077,4.808,4.8083,4.809,4.8095,4.8099,0,0,0,0,0,4.7572,4.7614,4.7618,4.7632,4.7711,4.7768,4.7778,4.7799,4.7788,4.7811,4.7838,4.784,4.7949,4.7927,4.7941,4.7969,4.8076,4.8079,4.8083,4.8088,4.8094,4.8099,0,0,0,0,0,0,4.7566,4.7621,4.7625,4.7685,4.7722,4.777,4.7798,4.7804,4.7845,4.7843,4.7867,4.7878,4.7934,4.7957,4.7932,4.8028,4.8011,4.8018,4.801,4.8016,4.8021,4.8014,4.7928,0,0,0,0,0,4.7572,4.7613,4.7659,4.7707,4.7726,4.7759,4.7784,4.7798,4.7836,4.7852,4.7883,4.792,4.7963,4.7991,4.8032,4.8093,4.8105,4.8119,4.8124,4.8127,4.8133,4.8169,4.8177,4.8097,4.8097,4.8097,0,0,4.7584,4.7619,4.7644,4.7707,4.7737,4.778,4.7772,4.7816,4.7849,4.7858,4.7915,4.7939,4.7982,4.8042,4.807,4.8063,4.8157,4.8132,4.8134,4.8138,4.8174,4.8181,4.8188,4.8099,4.8099,4.8098,0,0,4.7628,4.7658,4.7703,4.7734,4.778,4.7803,4.7813,4.7861,4.7878,4.7935,4.7944,4.7983,4.8055,4.8087,4.8112,4.8172,4.8176,4.8184,4.8207,4.8242,4.8249,4.8255,4.8278,4.8285,4.819,4.819,4.819,0,4.7637,4.7702,4.7725,4.7771,4.7799,4.7811,4.7858,4.7886,4.7943,4.7963,4.7954,4.8048,4.8078,4.8147,4.8161,4.8181,4.8195,4.8179,4.8246,4.8252,4.8258,4.828,4.8288,4.819,4.819,4.819,4.819,0,4.7712,4.7757,4.7788,4.7845,4.7876,4.7922,4.7952,4.7982,4.7993,4.8016,4.8075,4.8112,4.8163,4.818,4.819,4.8251,4.8245,4.8241,4.8226,4.8266,4.8287,4.8296,4.8192,4.8191,4.8191,4.8191,0,0,4.7755,4.7825,4.7836,4.7863,4.7916,4.7951,4.7998,4.8049,4.8074,4.8114,4.8155,4.8217,4.8215,4.8244,4.8258,4.8289,4.8337,4.8282,4.8283,4.8292,4.8408,4.8412,4.8421,4.834,4.8341,4.8343,4.8405,0,4.7806,4.7891,4.7914,4.7985,4.8028,4.8042,4.8083,4.812,4.8144,4.8184,4.8209,4.8254,4.8247,4.8265,4.8296,4.8324,4.836,4.832,4.8379,4.8381,4.8369,4.8432,4.8435,4.8492,4.8413,4.8414,4.8415,0,4.7878,4.7921,4.7997,4.8047,4.8066,4.8102,4.8152,4.819,4.8233,4.8248,4.8282,4.8294,4.8345,4.8326,4.8397,4.8369,4.8395,4.8413,4.8415,4.8422,4.8401,4.8442,4.851,4.8519,4.8428,4.8427,4.8426,0,4.7904,4.798,4.8036,4.8059,4.8118,4.8144,4.8169,4.8211,4.8241,4.8284,4.8304,4.8352,4.8378,4.8416,4.8441,4.8425,4.8511,4.8494,4.8525,4.8525,4.8543,4.8542,4.8618,4.8558,4.8557,4.8557,4.8557,0,4.796,4.8006,4.8049,4.8084,4.8137,4.8163,4.8215,4.8241,4.8279,4.832,4.8333,4.8371,4.8402,4.8444,4.8465,4.8521,4.8533,4.8547,4.8552,4.8547,4.8545,4.8564,4.8562,4.8559,4.8559,4.8559,4.8558,0,4.7998,4.8028,4.809,4.8142,4.8156,4.8193,4.8238,4.8272,4.8297,4.8348,4.8362,4.8401,4.8451,4.8481,4.8544,4.8558,4.8621,4.8624,4.8607,4.861,4.8641,4.8638,4.8733,4.8747,4.8676,4.8676,4.8677,0,4.8032,4.8069,4.8125,4.8154,4.818,4.8226,4.8257,4.8284,4.8316,4.837,4.8398,4.845,4.8493,4.8574,4.8608,4.8657,4.8662,4.8692,4.8669,4.8663,4.8664,4.8663,4.8667,4.8696,4.8696,4.8697,4.8697,0,4.8091,4.8105,4.8149,4.82,4.8237,4.8277,4.8318,4.834,4.8375,4.841,4.8463,4.8496,4.8562,4.8614,4.8667,4.8694,4.8702,4.8704,4.8715,4.871,4.87,4.8708,4.8619,4.8702,4.8701,4.8701,4.8701,4.8701,4.813,4.8164,4.8209,4.8259,4.8293,4.8331,4.8367,4.8397,4.8441,4.8498,4.8511,4.8567,4.8612,4.8683,4.8712,4.8757,4.8751,4.8766,4.877,4.8773,4.8775,4.8692,4.8766,4.8766,4.8766,4.8766,4.8766,0,4.8191,4.8221,4.8267,4.8324,4.8364,4.8368,4.8414,4.8447,4.8496,4.8537,4.858,4.8642,4.8693,4.8731,4.8784,4.8812,4.8818,4.8825,4.8824,4.8831,4.8776,4.8763,4.882,4.882,4.882,4.882,4.882,4.882,4.8228,4.8287,4.8306,4.8382,4.8412,4.8468,4.8494,4.853,4.8563,4.8631,4.8674,4.8699,4.874,4.8796,4.8844,4.8854,4.8873,4.8881,4.8891,4.884,4.8834,4.8828,4.8816,4.8884,4.8884,4.8943,4.8943,4.8944]}]]